This demonstration page uses our WeatherBlox Daily Observations layout. Learn more.

Left ArrowRight Arrow

41.55636, -103.73856

Hourly Observations for July 13, 2020

Temp ( °F °C ) Dew Point ( °F °C ) Humidity (%) Winds ( mph kmh ) Pressure ( in mb ) Visibility ( mi km ) Precip ( " mm )
6:58 pm 18:58 Clear 90 32.2 33 0.8 13 13 SE 12 19 29.73 1007 10 16 0.00 0.00
7:58 pm 19:58 Partly Cloudy 88 31.1 31 -0.5 13 13 SSW 12 19 29.74 1007 10 16 0.00 0.00
8:58 pm 20:58 Mostly Cloudy 86 29.9 31 -0.4 14 14 SW 17 28 29.73 1007 10 16 0.00 0.00
9:58 pm 21:58 Clear 82 27.7 33 0.4 17 17 E 6 9 29.75 1008 10 16 0.00 0.00
10:58 pm 22:58 Mostly Clear 79 26.3 34 1.3 20 20 SSE 3 6 29.73 1007 10 16 0.00 0.00
11:58 pm 23:58 Clear 76 24.5 34 1 21 21 SSE 14 22 29.72 1007 10 16 0.00 0.00
12:58 am 00:58 Partly Cloudy 75 23.7 37 2.8 26 26 SSW 12 19 29.71 1006 10 16 0.00 0.00
1:58 am 01:58 Clear 72 22.4 37 2.9 28 28 W 8 13 29.71 1006 10 16 0.00 0.00
2:58 am 02:58 Clear 72 22.1 37 2.8 28 28 SSW 24 39 29.70 1006 10 16 0.00 0.00
3:58 am 03:58 Clear 70 21 39 3.7 32 32 SW 12 19 29.71 1006 10 16 0.00 0.00
4:58 am 04:58 Clear 73 22.8 38 3.3 28 28 W 13 20 29.66 1004 10 16 0.00 0.00
5:58 am 05:58 Sunny 74 23.3 36 2.4 25 25 WNW 15 24 29.74 1007 10 16 0.00 0.00
6:58 am 06:58 Sunny 71 21.4 39 3.7 31 31 WNW 7 11 29.79 1009 10 16 0.00 0.00
7:58 am 07:58 Sunny 73 22.7 41 5 32 32 NW 7 11 29.80 1009 10 16 0.00 0.00
8:58 am 08:58 Sunny 74 23.4 41 4.8 30 30 NW 9 15 29.81 1009 10 16 0.00 0.00
9:58 am 09:58 Sunny 76 24.6 42 5.8 30 30 NNW 3 6 29.81 1009 10 16 0.00 0.00
10:58 am 10:58 Sunny 76 24.6 42 5.7 30 30 Calm 29.78 1009 10 16 0.00 0.00
11:58 am 11:58 Partly Cloudy 79 26.3 42 5.3 26 26 Calm 29.80 1009 10 16 0.00 0.00
12:58 pm 12:58 Sunny 87 30.8 40 4.5 19 19 ESE 7 11 29.72 1007 10 16 0.00 0.00
1:58 pm 13:58 Mostly Sunny 86 30.2 41 5.2 21 21 E 13 20 29.72 1006 10 16 0.00 0.00
2:58 pm 14:58 Sunny 84 29 43 5.9 23 23 SE 13 20 29.75 1008 10 16 0.00 0.00
3:58 pm 15:58 Windy with Rain Showers Likely 80 26.5 44 6.4 28 28 S 28 44 29.75 1007 10 16 0.00 0.00
4:58 pm 16:58 Mostly Cloudy with Showers 69 20.3 54 12.3 60 60 SSW 22 35 29.85 1011 10 16 0.02 0.51
5:58 pm 17:58 Cloudy with Showers 63 17.2 56 13.4 78 78 S 10 17 29.88 1012 10 16 0.07 1.78

Powered by AerisWeather